Weather in Batman

Turkey     37°52′30″N   41°07′26″E
temp.,
°C
wind,
m/s
gust,
m/s
humid.,
%
clouds,
%
prec.,
mm/h
press.,
hPa
HPBL,
m
7 may, fri
fri700:00+18se1151100 0.0 100814
03:00+14nw71086100 1.1 1009214
06:00+15ne1486100 1.8 1008163
09:00+15nne1387100 3.9 1011182
12:00+18n246191 0.1 1011368
15:00+24n434011 0.1 10091928
18:00+22nne23500 0.0 100984
21:00+18nne22520 0.0 101111
8 may, sat
sat800:00+16nnw12583 0.0 101211
03:00+14ese11665 0.0 101310
06:00+14ene11680 0.0 101311
09:00+21wnw11485 0.0 1014468
12:00+26sw21349 0.0 10121274
15:00+27w22285 0.0 10111684
18:00+26sse113970 0.0 101012
21:00+20ene11424 0.0 101111
9 may, sun
sun900:00+19nne224726 0.0 101111
03:00+17e0151100 0.0 101111
06:00+17ne225894 0.0 101112
09:00+23ssw1142100 0.0 1010393
12:00+28wsw233187 0.0 10091001
15:00+31ssw310250 0.0 10053077
18:00+19nw101362100 0.8 1008302
21:00+16sse117774 1.8 101011
10 may, mon
mon1000:00+15ssw11820 0.0 101012
03:00+12ssw22820 0.0 101025
06:00+10ssw227615 0.0 101271
09:00+16ssw116147 0.0 1012463
12:00+22wsw32460 0.0 10101177
15:00+25w54280 0.0 10081465
18:00+21w48380 0.0 1007176
21:00+14wsw23410 0.0 100931
11 may, tue
tue1100:00+11s11371 0.0 101010
03:00+10ene11375 0.0 101010
06:00+10w00440 0.0 101110
09:00+18sw11340 0.0 1011421
12:00+23wsw11260 0.0 1010916
15:00+25w22240 0.0 10081347
18:00+23n23390 0.0 100742
21:00+18nne11406 0.0 100811